BAW461 LFRS-DTTJ

Flight info

Callsign BAW461
Flight time 2h 14m
Altitude 25000
Route LUGEN4N LUGEN UM184 TUPAR/N0479F410 DCT CNA DCT SECHE DCT SOVET DCT FJR UM731 DIVKO UM154 JUSQO DCT FIRRA DCT NAFOQ DCT SALMA UG6 DIMAO UZ147 KIRAS A856 TINAP DCT
Aircraft B788/H-SDE1E2E3FGHIJ2J3J4J5M1RWXY/LB1D1

Departure

Time 2026-04-24 10:10
Airport Nantes Atlantique Airport (LFRS)

Arrival

Time 2026-04-24 12:25
Airport Djerba Zarzis International Airport (DTTJ)
Time Latitude Longitude Altitude Speed Heading
2026-04-24 09:48 47.15665 -1.60359 104 ft 0 kts 53°
2026-04-24 09:58 47.15666 -1.60359 104 ft 0 kts 53°
2026-04-24 09:59 47.15682 -1.60327 104 ft 6 kts 53°
2026-04-24 09:59 47.15710 -1.60273 104 ft 3 kts 48°
2026-04-24 10:00 47.15736 -1.60269 104 ft 5 kts 334°
2026-04-24 10:00 47.15772 -1.60337 104 ft 13 kts 305°
2026-04-24 10:00 47.15794 -1.60451 104 ft 12 kts 248°
2026-04-24 10:00 47.15714 -1.60533 104 ft 18 kts 206°
2026-04-24 10:01 47.15627 -1.60595 104 ft 14 kts 207°
2026-04-24 10:01 47.15582 -1.60631 104 ft 11 kts 208°
2026-04-24 10:01 47.15479 -1.60699 104 ft 18 kts 200°
2026-04-24 10:01 47.15404 -1.60743 104 ft 13 kts 205°
2026-04-24 10:02 47.15330 -1.60797 104 ft 11 kts 207°
2026-04-24 10:02 47.15259 -1.60851 104 ft 9 kts 207°
2026-04-24 10:02 47.15167 -1.60921 104 ft 18 kts 207°
2026-04-24 10:02 47.15052 -1.61008 104 ft 22 kts 207°
2026-04-24 10:03 47.14940 -1.61094 104 ft 18 kts 207°
2026-04-24 10:03 47.14879 -1.61140 104 ft 13 kts 208°
2026-04-24 10:03 47.14790 -1.61209 104 ft 10 kts 207°
2026-04-24 10:03 47.14704 -1.61275 104 ft 13 kts 207°
2026-04-24 10:04 47.14599 -1.61354 104 ft 17 kts 207°
2026-04-24 10:04 47.14468 -1.61451 104 ft 19 kts 207°
2026-04-24 10:04 47.14323 -1.61561 104 ft 18 kts 207°
2026-04-24 10:04 47.14246 -1.61620 104 ft 14 kts 207°
2026-04-24 10:05 47.14178 -1.61671 104 ft 11 kts 207°
2026-04-24 10:05 47.14141 -1.61724 104 ft 11 kts 255°
2026-04-24 10:05 47.14155 -1.61818 104 ft 3 kts 298°
2026-04-24 10:05 47.14155 -1.61819 104 ft 0 kts 298°
2026-04-24 10:06 47.14156 -1.61820 104 ft 0 kts 298°
2026-04-24 10:07 47.14165 -1.61846 104 ft 8 kts 298°
2026-04-24 10:07 47.14212 -1.61908 104 ft 12 kts
2026-04-24 10:07 47.14251 -1.61887 104 ft 0 kts 28°
2026-04-24 10:08 47.14252 -1.61886 104 ft 0 kts 28°
2026-04-24 10:09 47.14346 -1.61812 104 ft 56 kts 28°
2026-04-24 10:09 47.15010 -1.61302 104 ft 154 kts 29°
2026-04-24 10:10 47.16107 -1.60441 685 ft 186 kts 30°
2026-04-24 10:10 47.17266 -1.59535 1977 ft 187 kts 33°
2026-04-24 10:10 47.18105 -1.58086 2698 ft 200 kts 68°
2026-04-24 10:10 47.18174 -1.56009 3419 ft 215 kts 103°
2026-04-24 10:11 47.17345 -1.54124 4149 ft 232 kts 136°
2026-04-24 10:11 47.15838 -1.53132 4909 ft 246 kts 165°
2026-04-24 10:11 47.14153 -1.52630 5810 ft 253 kts 165°
2026-04-24 10:11 47.12424 -1.51940 6670 ft 260 kts 161°
2026-04-24 10:12 47.10677 -1.51089 7568 ft 267 kts 159°
2026-04-24 10:12 47.08931 -1.50146 8405 ft 273 kts 157°
2026-04-24 10:12 47.07123 -1.48949 9276 ft 279 kts 146°
2026-04-24 10:12 47.05628 -1.47246 10180 ft 280 kts 139°
2026-04-24 10:13 47.04111 -1.45339 10811 ft 295 kts 137°
2026-04-24 10:13 47.02524 -1.43296 11325 ft 313 kts 137°
2026-04-24 10:13 47.00849 -1.41123 11856 ft 330 kts 137°
2026-04-24 10:13 46.99101 -1.38853 12302 ft 349 kts 137°
2026-04-24 10:14 46.97232 -1.36423 12879 ft 364 kts 137°
2026-04-24 10:14 46.95322 -1.33937 13551 ft 374 kts 137°
2026-04-24 10:14 46.93537 -1.31615 14209 ft 381 kts 137°
2026-04-24 10:14 46.91730 -1.29267 14926 ft 385 kts 137°
2026-04-24 10:15 46.89661 -1.26583 15699 ft 391 kts 137°
2026-04-24 10:15 46.87651 -1.23976 16424 ft 396 kts 138°
2026-04-24 10:15 46.85582 -1.21295 17152 ft 400 kts 138°
2026-04-24 10:15 46.83485 -1.18576 17884 ft 404 kts 139°
2026-04-24 10:16 46.81374 -1.15838 18568 ft 409 kts 138°
2026-04-24 10:16 46.79234 -1.13067 19198 ft 414 kts 138°
2026-04-24 10:16 46.77064 -1.10256 19812 ft 419 kts 138°
2026-04-24 10:16 46.74866 -1.07410 20425 ft 424 kts 139°
2026-04-24 10:17 46.72654 -1.04549 21037 ft 428 kts 139°
2026-04-24 10:17 46.70418 -1.01664 21612 ft 432 kts 139°
2026-04-24 10:17 46.68152 -0.98743 22169 ft 436 kts 139°
2026-04-24 10:17 46.65863 -0.95795 22712 ft 440 kts 139°
2026-04-24 10:18 46.64304 -0.93790 23078 ft 443 kts 139°
2026-04-24 10:18 46.61951 -0.90764 23575 ft 448 kts 139°
2026-04-24 10:18 46.59602 -0.87747 24093 ft 452 kts 139°
2026-04-24 10:18 46.57240 -0.84710 24527 ft 457 kts 139°
2026-04-24 10:19 46.54845 -0.81622 24750 ft 461 kts 139°
2026-04-24 10:19 46.52420 -0.78497 24877 ft 460 kts 139°
2026-04-24 10:19 46.49995 -0.75376 24900 ft 473 kts 139°
2026-04-24 10:19 46.47502 -0.72190 24909 ft 477 kts 140°
2026-04-24 10:20 46.44784 -0.69466 24897 ft 476 kts 151°
2026-04-24 10:20 46.41835 -0.67295 24911 ft 477 kts 156°
2026-04-24 10:20 46.38810 -0.65304 24892 ft 477 kts 158°
2026-04-24 10:20 46.35740 -0.63461 24874 ft 477 kts 160°
2026-04-24 10:21 46.32629 -0.61785 24860 ft 476 kts 162°
2026-04-24 10:21 46.29499 -0.60228 24853 ft 475 kts 163°
2026-04-24 10:21 46.26361 -0.58737 24858 ft 475 kts 163°
2026-04-24 10:21 46.23213 -0.57273 24866 ft 475 kts 164°
2026-04-24 10:22 46.20058 -0.55820 24873 ft 476 kts 164°
2026-04-24 10:22 46.16906 -0.54372 24880 ft 475 kts 164°
2026-04-24 10:22 46.13754 -0.52925 24884 ft 475 kts 164°
2026-04-24 10:22 46.10616 -0.51485 24889 ft 474 kts 164°
2026-04-24 10:23 46.07453 -0.50036 24897 ft 474 kts 164°
2026-04-24 10:23 46.04332 -0.48607 24902 ft 474 kts 164°
2026-04-24 10:23 46.01192 -0.47171 24910 ft 473 kts 164°
2026-04-24 10:23 45.98057 -0.45739 24918 ft 474 kts 164°
2026-04-24 10:24 45.94920 -0.44307 24924 ft 473 kts 163°
2026-04-24 10:24 45.91737 -0.42856 24929 ft 474 kts 163°
2026-04-24 10:24 45.88600 -0.41429 24942 ft 484 kts 163°
2026-04-24 10:24 45.85338 -0.39948 25106 ft 496 kts 163°
2026-04-24 10:25 45.82018 -0.38441 25453 ft 504 kts 163°
2026-04-24 10:25 45.78662 -0.36919 25888 ft 509 kts 163°
2026-04-24 10:25 45.75273 -0.35383 26425 ft 512 kts 163°
2026-04-24 10:25 45.71873 -0.33844 27057 ft 512 kts 163°
2026-04-24 10:26 45.68489 -0.32264 27731 ft 511 kts 161°
2026-04-24 10:26 45.65244 -0.30405 28393 ft 510 kts 158°
2026-04-24 10:26 45.61967 -0.28325 29054 ft 508 kts 156°
2026-04-24 10:26 45.58761 -0.26181 29703 ft 506 kts 155°
2026-04-24 10:27 45.55590 -0.24010 30336 ft 505 kts 155°
2026-04-24 10:27 45.52426 -0.21825 30741 ft 503 kts 155°
2026-04-24 10:27 45.49287 -0.19654 30970 ft 500 kts 155°
2026-04-24 10:27 45.46170 -0.17503 31086 ft 498 kts 155°
2026-04-24 10:28 45.43055 -0.15357 31100 ft 496 kts 155°
2026-04-24 10:28 45.36856 -0.11100 31109 ft 494 kts 155°
2026-04-24 10:29 45.30617 -0.06829 31120 ft 495 kts 155°
2026-04-24 10:29 45.24404 -0.02584 31124 ft 494 kts 155°
2026-04-24 10:30 45.18199 0.01645 31112 ft 494 kts 155°
2026-04-24 10:30 45.12009 0.05849 31143 ft 497 kts 155°
2026-04-24 10:31 45.05742 0.10102 31160 ft 497 kts 155°
2026-04-24 10:31 44.99521 0.14314 31152 ft 494 kts 154°
2026-04-24 10:32 44.93283 0.18520 31157 ft 496 kts 155°
2026-04-24 10:32 44.86964 0.22780 31165 ft 493 kts 155°
2026-04-24 10:33 44.80794 0.26918 31153 ft 493 kts 155°
2026-04-24 10:33 44.74565 0.31095 31128 ft 492 kts 155°
2026-04-24 10:34 44.68335 0.35261 31122 ft 491 kts 155°
2026-04-24 10:34 44.62144 0.39385 31134 ft 494 kts 155°
2026-04-24 10:35 44.55895 0.43542 31119 ft 493 kts 155°
2026-04-24 10:35 44.49745 0.47658 31121 ft 493 kts 153°
2026-04-24 10:35 44.46889 0.50299 31110 ft 493 kts 141°
2026-04-24 10:36 44.44434 0.53738 31116 ft 494 kts 130°
2026-04-24 10:36 44.42540 0.57741 31114 ft 494 kts 118°
2026-04-24 10:36 44.41232 0.62181 31119 ft 493 kts 108°
2026-04-24 10:37 44.39362 0.71428 31110 ft 493 kts 105°
2026-04-24 10:37 44.37718 0.79231 31098 ft 496 kts 107°
2026-04-24 10:38 44.35625 0.88338 31105 ft 494 kts 108°
2026-04-24 10:38 44.33436 0.97571 31113 ft 497 kts 108°
2026-04-24 10:39 44.31230 1.06799 31097 ft 497 kts 108°
2026-04-24 10:39 44.29024 1.15988 31103 ft 497 kts 108°
2026-04-24 10:40 44.26784 1.25289 31265 ft 513 kts 108°
2026-04-24 10:40 44.25637 1.30035 31592 ft 517 kts 108°
2026-04-24 10:40 44.24484 1.34790 32073 ft 518 kts 108°
2026-04-24 10:40 44.23327 1.39560 32606 ft 518 kts 108°
2026-04-24 10:41 44.22171 1.44322 33064 ft 519 kts 108°
2026-04-24 10:41 44.21010 1.49087 33570 ft 519 kts 108°
2026-04-24 10:41 44.19849 1.53835 34164 ft 517 kts 108°
2026-04-24 10:41 44.18688 1.58580 34704 ft 515 kts 108°
2026-04-24 10:42 44.17525 1.63323 35270 ft 513 kts 108°
2026-04-24 10:42 44.16378 1.68000 35738 ft 513 kts 109°
2026-04-24 10:42 44.15217 1.72714 36211 ft 512 kts 109°
2026-04-24 10:42 44.14049 1.77449 36691 ft 510 kts 108°
2026-04-24 10:43 44.12904 1.82119 37147 ft 509 kts 108°
2026-04-24 10:43 44.11770 1.86759 37595 ft 506 kts 109°
2026-04-24 10:43 44.10640 1.91381 38023 ft 504 kts 108°
2026-04-24 10:43 44.09509 1.95995 38399 ft 503 kts 108°
2026-04-24 10:44 44.08379 2.00598 38743 ft 502 kts 109°
2026-04-24 10:44 44.07249 2.05193 39068 ft 502 kts 109°
2026-04-24 10:44 44.06102 2.09843 39375 ft 501 kts 109°
2026-04-24 10:44 44.04966 2.14428 39579 ft 504 kts 108°
2026-04-24 10:45 44.03822 2.19041 39799 ft 505 kts 108°
2026-04-24 10:45 44.02677 2.23656 40113 ft 504 kts 109°
2026-04-24 10:45 44.01525 2.28293 40467 ft 503 kts 109°
2026-04-24 10:45 44.00386 2.32863 40754 ft 502 kts 109°
2026-04-24 10:46 43.99245 2.37430 40951 ft 503 kts 109°
2026-04-24 10:46 43.96904 2.46775 41017 ft 507 kts 109°
2026-04-24 10:47 43.94583 2.55999 41021 ft 506 kts 110°
2026-04-24 10:47 43.92272 2.65147 41045 ft 497 kts 109°
2026-04-24 10:48 43.89969 2.74230 41073 ft 496 kts 109°
2026-04-24 10:48 43.87670 2.83265 41099 ft 496 kts 109°
2026-04-24 10:49 43.85342 2.92380 41118 ft 491 kts 109°
2026-04-24 10:49 43.83074 3.01226 41129 ft 494 kts 109°
2026-04-24 10:50 43.80753 3.10237 41126 ft 492 kts 109°
2026-04-24 10:50 43.78447 3.19164 41144 ft 492 kts 110°
2026-04-24 10:51 43.76131 3.28090 41135 ft 493 kts 109°
2026-04-24 10:51 43.73808 3.37007 41168 ft 493 kts 109°
2026-04-24 10:52 43.71479 3.45923 41186 ft 493 kts 109°
2026-04-24 10:52 43.69140 3.54839 41194 ft 493 kts 109°
2026-04-24 10:53 43.66795 3.63745 41205 ft 494 kts 109°
2026-04-24 10:53 43.64442 3.72648 41190 ft 493 kts 109°
2026-04-24 10:54 43.62468 3.80089 41196 ft 493 kts 109°
2026-04-24 10:54 43.59642 3.90458 41188 ft 495 kts 115°
2026-04-24 10:55 43.56010 3.98517 41209 ft 495 kts 125°
2026-04-24 10:55 43.51895 4.06170 41185 ft 496 kts 128°
2026-04-24 10:56 43.48212 4.12284 41178 ft 495 kts 131°
2026-04-24 10:56 43.43662 4.19428 41191 ft 496 kts 132°
2026-04-24 10:57 43.39083 4.26497 41189 ft 494 kts 131°
2026-04-24 10:57 43.34505 4.33548 41203 ft 493 kts 131°
2026-04-24 10:58 43.29931 4.40580 41195 ft 495 kts 131°
2026-04-24 10:58 43.25337 4.47626 41189 ft 494 kts 131°
2026-04-24 10:59 43.20754 4.54639 41190 ft 494 kts 131°
2026-04-24 10:59 43.16166 4.61642 41178 ft 494 kts 131°
2026-04-24 11:00 43.11569 4.68644 41190 ft 493 kts 132°
2026-04-24 11:00 43.06709 4.75263 41158 ft 495 kts 144°
2026-04-24 11:00 43.03746 4.77629 41176 ft 493 kts 155°
2026-04-24 11:01 43.00596 4.79483 41193 ft 493 kts 159°
2026-04-24 11:01 42.94131 4.82652 41168 ft 493 kts 162°
2026-04-24 11:02 42.87625 4.85600 41168 ft 493 kts 162°
2026-04-24 11:02 42.81098 4.88536 41173 ft 493 kts 162°
2026-04-24 11:03 42.74412 4.91490 41165 ft 492 kts 165°
2026-04-24 11:03 42.67941 4.93768 41177 ft 495 kts 167°
2026-04-24 11:04 42.61265 4.95901 41170 ft 495 kts 167°
2026-04-24 11:04 42.54563 4.98013 41171 ft 494 kts 167°
2026-04-24 11:05 42.47831 5.00136 41179 ft 497 kts 167°
2026-04-24 11:05 42.41051 5.02274 41165 ft 496 kts 167°
2026-04-24 11:06 42.34381 5.04373 41175 ft 496 kts 167°
2026-04-24 11:06 42.27644 5.06488 41173 ft 497 kts 167°
2026-04-24 11:07 42.17553 5.09649 41173 ft 496 kts 167°
2026-04-24 11:07 42.10817 5.11752 41177 ft 497 kts 167°
2026-04-24 11:08 42.04074 5.13853 41165 ft 497 kts 167°
2026-04-24 11:08 41.97334 5.15950 41178 ft 497 kts 168°
2026-04-24 11:09 41.90602 5.18039 41167 ft 497 kts 168°
2026-04-24 11:09 41.83853 5.20128 41170 ft 497 kts 168°
2026-04-24 11:10 41.77108 5.22212 41171 ft 497 kts 168°
2026-04-24 11:10 41.70360 5.24291 41161 ft 498 kts 168°
2026-04-24 11:11 41.63666 5.26657 41175 ft 498 kts 163°
2026-04-24 11:11 41.57099 5.29658 41158 ft 498 kts 161°
2026-04-24 11:12 41.50565 5.32805 41165 ft 498 kts 160°
2026-04-24 11:12 41.44031 5.35958 41163 ft 500 kts 161°
2026-04-24 11:13 41.37488 5.39100 41147 ft 499 kts 161°
2026-04-24 11:13 41.30944 5.42231 41148 ft 500 kts 161°
2026-04-24 11:14 41.24383 5.45363 41148 ft 501 kts 160°
2026-04-24 11:14 41.17822 5.48491 41138 ft 500 kts 161°
2026-04-24 11:15 41.11270 5.51606 41151 ft 500 kts 161°
2026-04-24 11:15 41.04664 5.54740 41143 ft 501 kts 161°
2026-04-24 11:16 40.98151 5.57824 41139 ft 500 kts 161°
2026-04-24 11:16 40.91588 5.60924 41150 ft 501 kts 161°
2026-04-24 11:17 40.85024 5.64019 41138 ft 501 kts 161°
2026-04-24 11:17 40.78465 5.67105 41141 ft 500 kts 161°
2026-04-24 11:18 40.71865 5.70203 41148 ft 501 kts 161°
2026-04-24 11:18 40.65332 5.73264 41135 ft 501 kts 161°
2026-04-24 11:19 40.58728 5.76351 41146 ft 501 kts 161°
2026-04-24 11:19 40.52156 5.79417 41143 ft 501 kts 161°
2026-04-24 11:20 40.45637 5.82507 41135 ft 501 kts 159°
2026-04-24 11:20 40.39167 5.86280 41148 ft 503 kts 155°
2026-04-24 11:21 40.32831 5.90246 41141 ft 504 kts 155°
2026-04-24 11:21 40.26520 5.94212 41141 ft 503 kts 155°
2026-04-24 11:22 40.20185 5.98172 41153 ft 505 kts 155°
2026-04-24 11:22 40.13815 6.02140 41140 ft 504 kts 155°
2026-04-24 11:23 40.07424 6.06112 41143 ft 504 kts 155°
2026-04-24 11:23 40.02117 6.09403 41152 ft 505 kts 155°
2026-04-24 11:24 39.95786 6.13323 41141 ft 504 kts 155°
2026-04-24 11:24 39.89388 6.17276 41147 ft 504 kts 155°
2026-04-24 11:25 39.83022 6.21200 41160 ft 505 kts 156°
2026-04-24 11:25 39.76648 6.25122 41146 ft 505 kts 155°
2026-04-24 11:26 39.70300 6.29021 41145 ft 505 kts 156°
2026-04-24 11:26 39.63857 6.32968 41162 ft 505 kts 155°
2026-04-24 11:27 39.57436 6.36894 41160 ft 507 kts 156°
2026-04-24 11:27 39.50924 6.40869 41158 ft 507 kts 156°
2026-04-24 11:28 39.44412 6.44834 41172 ft 507 kts 156°
2026-04-24 11:28 39.38016 6.48720 41157 ft 507 kts 156°
2026-04-24 11:29 39.31575 6.52626 41165 ft 508 kts 156°
2026-04-24 11:29 39.25068 6.56565 41172 ft 508 kts 156°
2026-04-24 11:30 39.18628 6.60454 41179 ft 509 kts 156°
2026-04-24 11:30 39.12212 6.64321 41195 ft 509 kts 156°
2026-04-24 11:31 39.05798 6.68181 41186 ft 508 kts 156°
2026-04-24 11:31 38.99362 6.71943 41182 ft 509 kts 158°
2026-04-24 11:32 38.92856 6.75412 41196 ft 509 kts 159°
2026-04-24 11:32 38.86303 6.78821 41183 ft 507 kts 160°
2026-04-24 11:33 38.79758 6.82218 41187 ft 508 kts 159°
2026-04-24 11:33 38.73192 6.85625 41197 ft 508 kts 160°
2026-04-24 11:34 38.66642 6.89020 41181 ft 508 kts 160°
2026-04-24 11:34 38.60073 6.92417 41186 ft 510 kts 159°
2026-04-24 11:35 38.53507 6.95808 41189 ft 508 kts 160°
2026-04-24 11:35 38.46937 6.99192 41175 ft 510 kts 160°
2026-04-24 11:36 38.40344 7.02583 41184 ft 511 kts 160°
2026-04-24 11:36 38.34857 7.05398 41177 ft 512 kts 160°
2026-04-24 11:37 38.28244 7.08787 41176 ft 513 kts 160°
2026-04-24 11:37 38.21620 7.12174 41184 ft 512 kts 160°
2026-04-24 11:38 38.15011 7.15547 41168 ft 512 kts 160°
2026-04-24 11:38 38.08373 7.18927 41180 ft 514 kts 160°
2026-04-24 11:39 38.01732 7.22304 41174 ft 513 kts 160°
2026-04-24 11:39 37.95101 7.25669 41168 ft 512 kts 160°
2026-04-24 11:40 37.88503 7.29010 41179 ft 511 kts 160°
2026-04-24 11:40 37.81893 7.32350 41169 ft 512 kts 160°
2026-04-24 11:41 37.75287 7.35681 41160 ft 512 kts 160°
2026-04-24 11:41 37.68656 7.39019 41163 ft 512 kts 160°
2026-04-24 11:42 37.62080 7.42324 41173 ft 511 kts 160°
2026-04-24 11:42 37.55452 7.45647 41156 ft 512 kts 160°
2026-04-24 11:43 37.48845 7.48957 41141 ft 508 kts 161°
2026-04-24 11:43 37.42263 7.52242 41131 ft 513 kts 160°
2026-04-24 11:44 37.35603 7.55562 41113 ft 516 kts 160°
2026-04-24 11:44 37.28972 7.58866 41091 ft 510 kts 161°
2026-04-24 11:45 37.22355 7.62151 41089 ft 514 kts 160°
2026-04-24 11:45 37.15685 7.65458 41105 ft 514 kts 161°
2026-04-24 11:46 37.09019 7.68759 41081 ft 510 kts 161°
2026-04-24 11:46 37.02382 7.72034 41094 ft 515 kts 160°
2026-04-24 11:47 36.95720 7.75319 41084 ft 513 kts 161°
2026-04-24 11:47 36.89137 7.78630 41064 ft 513 kts 156°
2026-04-24 11:48 36.83192 7.83656 41099 ft 516 kts 142°
2026-04-24 11:48 36.77665 7.89492 41078 ft 517 kts 138°
2026-04-24 11:49 36.72457 7.95762 41081 ft 517 kts 135°
2026-04-24 11:49 36.67429 8.02185 41095 ft 519 kts 134°
2026-04-24 11:50 36.62411 8.08649 41090 ft 518 kts 134°
2026-04-24 11:50 36.57396 8.15089 41082 ft 518 kts 135°
2026-04-24 11:51 36.52367 8.21525 41098 ft 519 kts 134°
2026-04-24 11:51 36.47314 8.27977 41119 ft 521 kts 135°
2026-04-24 11:52 36.42145 8.34264 41107 ft 518 kts 140°
2026-04-24 11:52 36.36463 8.39781 41101 ft 518 kts 145°
2026-04-24 11:53 36.30468 8.44980 41123 ft 520 kts 147°
2026-04-24 11:53 36.24452 8.49969 41138 ft 520 kts 148°
2026-04-24 11:54 36.18418 8.54937 41138 ft 521 kts 148°
2026-04-24 11:54 36.12349 8.59930 41146 ft 520 kts 148°
2026-04-24 11:55 36.06313 8.64892 41135 ft 520 kts 148°
2026-04-24 11:55 36.00278 8.69846 41136 ft 522 kts 148°
2026-04-24 11:56 35.94174 8.74846 41161 ft 523 kts 148°
2026-04-24 11:56 35.88117 8.79799 41156 ft 522 kts 148°
2026-04-24 11:57 35.82027 8.84769 41156 ft 521 kts 148°
2026-04-24 11:57 35.75980 8.89695 41167 ft 522 kts 148°
2026-04-24 11:58 35.69871 8.94661 40693 ft 525 kts 148°
2026-04-24 11:58 35.67852 8.96300 40277 ft 524 kts 148°
2026-04-24 11:58 35.64809 8.98769 39628 ft 522 kts 148°
2026-04-24 11:59 35.61787 9.01220 38977 ft 520 kts 148°
2026-04-24 11:59 35.58727 9.03698 38318 ft 517 kts 148°
2026-04-24 11:59 35.55747 9.06094 37678 ft 514 kts 148°
2026-04-24 11:59 35.52691 9.08469 37023 ft 512 kts 149°
2026-04-24 12:00 35.49649 9.10787 36376 ft 510 kts 149°
2026-04-24 12:00 35.46623 9.13074 35734 ft 512 kts 149°
2026-04-24 12:00 35.43512 9.15419 35080 ft 522 kts 149°
2026-04-24 12:00 35.40408 9.17757 34424 ft 528 kts 149°
2026-04-24 12:01 35.37255 9.20133 33754 ft 530 kts 149°
2026-04-24 12:01 35.34107 9.22506 33080 ft 531 kts 149°
2026-04-24 12:01 35.30958 9.24879 32407 ft 532 kts 149°
2026-04-24 12:01 35.27765 9.27282 31724 ft 531 kts 148°
2026-04-24 12:02 35.24636 9.29635 31057 ft 526 kts 148°
2026-04-24 12:02 35.21530 9.31967 30395 ft 520 kts 148°
2026-04-24 12:02 35.18429 9.34295 29736 ft 514 kts 148°
2026-04-24 12:02 35.15399 9.36567 29094 ft 508 kts 148°
2026-04-24 12:03 35.12366 9.38841 28453 ft 502 kts 148°
2026-04-24 12:03 35.09310 9.41129 27810 ft 498 kts 148°
2026-04-24 12:03 35.06457 9.43263 27210 ft 495 kts 148°
2026-04-24 12:03 35.03522 9.45457 26590 ft 492 kts 148°
2026-04-24 12:04 35.00604 9.47634 25973 ft 489 kts 148°
2026-04-24 12:04 34.97696 9.49802 25357 ft 484 kts 148°
2026-04-24 12:04 34.94818 9.51947 24749 ft 480 kts 148°
2026-04-24 12:04 34.91975 9.54064 24148 ft 476 kts 148°
2026-04-24 12:05 34.89162 9.56156 23553 ft 472 kts 148°
2026-04-24 12:05 34.86337 9.58257 22955 ft 468 kts 148°
2026-04-24 12:05 34.83595 9.60293 22376 ft 464 kts 148°
2026-04-24 12:05 34.80851 9.62332 21797 ft 461 kts 148°
2026-04-24 12:06 34.78120 9.64359 21224 ft 457 kts 148°
2026-04-24 12:06 34.75416 9.66363 20655 ft 453 kts 148°
2026-04-24 12:06 34.72668 9.68397 20077 ft 449 kts 148°
2026-04-24 12:06 34.70031 9.70347 19521 ft 444 kts 148°
2026-04-24 12:07 34.67382 9.72305 18962 ft 440 kts 147°
2026-04-24 12:07 34.64779 9.74229 18413 ft 435 kts 147°
2026-04-24 12:07 34.62206 9.76128 17870 ft 431 kts 147°
2026-04-24 12:07 34.59661 9.78007 17335 ft 426 kts 147°
2026-04-24 12:08 34.57100 9.79896 16796 ft 422 kts 147°
2026-04-24 12:08 34.54599 9.81740 16270 ft 418 kts 147°
2026-04-24 12:08 34.52130 9.83558 15750 ft 414 kts 148°
2026-04-24 12:08 34.49679 9.85362 15234 ft 410 kts 148°
2026-04-24 12:09 34.47227 9.87165 14718 ft 406 kts 148°
2026-04-24 12:09 34.44777 9.88965 14199 ft 403 kts 148°
2026-04-24 12:09 34.42506 9.90956 13561 ft 401 kts 137°
2026-04-24 12:09 34.40842 9.92978 13123 ft 397 kts 131°
2026-04-24 12:11 34.39938 9.94169 12922 ft 394 kts 130°
2026-04-24 12:11 34.38151 9.96623 12579 ft 385 kts 128°
2026-04-24 12:11 34.36920 9.98409 12314 ft 380 kts 127°
2026-04-24 12:12 34.35268 10.00915 11945 ft 373 kts 126°
2026-04-24 12:12 34.33202 10.04163 11409 ft 353 kts 125°
2026-04-24 12:12 34.32047 10.06004 11169 ft 338 kts 125°
2026-04-24 12:12 34.30789 10.08017 10906 ft 322 kts 125°
2026-04-24 12:13 34.29380 10.10280 10607 ft 306 kts 125°
2026-04-24 12:13 34.28122 10.12309 10402 ft 299 kts 124°
2026-04-24 12:13 34.26839 10.14386 10087 ft 303 kts 124°
2026-04-24 12:13 34.25557 10.16463 9756 ft 304 kts 125°
2026-04-24 12:14 34.24309 10.18483 9439 ft 303 kts 124°
2026-04-24 12:14 34.23035 10.20542 9160 ft 301 kts 124°
2026-04-24 12:14 34.21786 10.22559 8900 ft 298 kts 125°
2026-04-24 12:14 34.20947 10.23914 8722 ft 296 kts 125°
2026-04-24 12:15 34.19297 10.26576 8363 ft 293 kts 125°
2026-04-24 12:15 34.18035 10.28612 8080 ft 291 kts 125°
2026-04-24 12:15 34.16808 10.30590 7798 ft 289 kts 125°
2026-04-24 12:15 34.15604 10.32529 7524 ft 288 kts 125°
2026-04-24 12:16 34.14405 10.34457 7248 ft 286 kts 125°
2026-04-24 12:16 34.13159 10.36312 6949 ft 285 kts 134°
2026-04-24 12:16 34.11561 10.37718 6717 ft 282 kts 146°
2026-04-24 12:16 34.10440 10.38577 6536 ft 281 kts 147°
2026-04-24 12:17 34.08214 10.40208 6166 ft 279 kts 148°
2026-04-24 12:17 34.07109 10.41002 5988 ft 278 kts 149°
2026-04-24 12:17 34.05451 10.42182 5734 ft 276 kts 149°
2026-04-24 12:17 34.03784 10.43362 5483 ft 273 kts 149°
2026-04-24 12:18 34.02106 10.44546 5222 ft 271 kts 149°
2026-04-24 12:18 34.00471 10.45697 4959 ft 269 kts 149°
2026-04-24 12:18 33.98876 10.46817 4704 ft 267 kts 149°
2026-04-24 12:18 33.97271 10.47944 4459 ft 266 kts 149°
2026-04-24 12:19 33.95634 10.49093 4214 ft 264 kts 148°
2026-04-24 12:19 33.94056 10.50199 3949 ft 262 kts 148°
2026-04-24 12:19 33.92497 10.51289 3676 ft 251 kts 147°
2026-04-24 12:19 33.91017 10.52325 3470 ft 241 kts 147°
2026-04-24 12:20 33.89578 10.53332 3258 ft 234 kts 147°
2026-04-24 12:20 33.88189 10.54318 3038 ft 227 kts 143°
2026-04-24 12:20 33.87201 10.55765 2690 ft 216 kts 109°
2026-04-24 12:20 33.87018 10.57466 2578 ft 185 kts 89°
2026-04-24 12:21 33.87047 10.58985 2404 ft 170 kts 85°
2026-04-24 12:21 33.87111 10.60440 2243 ft 166 kts 85°
2026-04-24 12:21 33.87161 10.61757 2111 ft 164 kts 85°
2026-04-24 12:21 33.87197 10.63163 1961 ft 163 kts 86°
2026-04-24 12:22 33.87218 10.64597 1844 ft 163 kts 86°
2026-04-24 12:22 33.87240 10.65904 1674 ft 163 kts 86°
2026-04-24 12:22 33.87278 10.67263 1463 ft 163 kts 85°
2026-04-24 12:22 33.87321 10.68611 1259 ft 156 kts 85°
2026-04-24 12:23 33.87356 10.69860 1049 ft 143 kts 85°
2026-04-24 12:23 33.87375 10.70706 915 ft 138 kts 85°
2026-04-24 12:23 33.87399 10.71863 766 ft 136 kts 85°
2026-04-24 12:23 33.87435 10.73386 498 ft 137 kts 85°
2026-04-24 12:24 33.87455 10.74161 371 ft 137 kts 85°
2026-04-24 12:24 33.87486 10.75354 172 ft 137 kts 85°
2026-04-24 12:24 33.87513 10.76471 38 ft 131 kts 85°
2026-04-24 12:24 33.87536 10.77396 33 ft 79 kts 88°
2026-04-24 12:25 33.87549 10.77850 33 ft 30 kts 88°
2026-04-24 12:25 33.87472 10.77937 33 ft 21 kts 194°
2026-04-24 12:25 33.87427 10.77924 33 ft 0 kts 187°
2026-04-24 12:25 33.87424 10.77923 33 ft 1 kts 187°
2026-04-24 12:26 33.87401 10.77919 33 ft 6 kts 193°
2026-04-24 12:26 33.87385 10.77890 33 ft 7 kts 268°
2026-04-24 12:26 33.87388 10.77839 33 ft 0 kts 275°
2026-04-24 12:27 33.87389 10.77802 33 ft 4 kts 270°
2026-04-24 12:27 33.87389 10.77769 33 ft 9 kts 269°
2026-04-24 12:27 33.87388 10.77717 33 ft 2 kts 269°
2026-04-24 12:27 33.87388 10.77697 33 ft 5 kts 269°
2026-04-24 12:28 33.87387 10.77644 33 ft 9 kts 269°
2026-04-24 12:28 33.87381 10.77614 33 ft 1 kts 230°
2026-04-24 12:28 33.87363 10.77606 33 ft 3 kts 180°
2026-04-24 12:28 33.87328 10.77617 33 ft 8 kts 170°
2026-04-24 12:29 33.87300 10.77619 33 ft 3 kts 179°
2026-04-24 12:29 33.87282 10.77619 33 ft 6 kts 178°
2026-04-24 12:29 33.87276 10.77619 33 ft 0 kts 178°
2026-04-24 12:29 33.87275 10.77619 33 ft 0 kts 178°